sat.trackr.live / text

‹ back to catalog

STARLINK-31910

NORAD 59664 · 2024-084L

PAYLOAD ACTIVE UNKNOWN

§ Identity

Operator
Country
US
Launch date
2024-05-06
Launch site
AFETR
Launch vehicle
Mass (kg)
RCS (m²)

Purposes: comms

External: N2YO · Heavens-Above · Gunter

§ Orbital elements

Epoch: 2026-09-21T09:04:04.728864Z

Period
94.27 min
Inclination
43.0026°
Eccentricity
0.0000992
Mean motion
15.27557828 rev/d
Perigee alt
482.4 km
Apogee alt
483.8 km
Semi-major
6,861.3 km
B*
-3.6651e-5
RAAN
16.4258°
Arg perigee
243.8282°
Mean anomaly
116.2467°
Rev number
13,430

§ Raw data

STARLINK-319101 59664U 24084L   26264.37783251 -.00001270  00000+0 -36651-4 0  99902 59664  43.0026  16.4258 0000992 243.8282 116.2467 15.27557828134300

JSON: /api/v1/satellites/59664 · /tle

For live sub-satellite position, see the globe view (requires WebGL).

§ Visibility from observer

Set your observer location to see the next 7 days of passes ≥ 10°. The values pass through the URL so the page stays shareable.

No JS? Fill the form by hand. The geolocation button needs JavaScript.